Simultaneous Nadir Overpasses (SNOs) Predictions

Prediction of SNOs between NOAA-19 and TERRA Satellite Orbit:

Table of predicted SNOs for the next 14.0 days since TLE Epoch: 5/25/2012
Index Date (NOAA-19) Time (NOAA-19) NOAA-19 Lat,Lon Date (TERRA) Time (TERRA) TERRA Lat,Lon Distance(km) Time Diff (sec)
1 05/26/2012 11:09:31 69.46, 11.26 05/26/2012 11:10:41 69.35, 12.15 36.79 70
2 05/26/2012 12:00:22 -68.98, 179.20 05/26/2012 12:00:16 -68.96, 179.28 3.55 6
3 05/26/2012 12:51:06 67.85, -12.07 05/26/2012 12:50:00 67.90, -14.37 96.28 66
4 05/28/2012 15:54:05 69.04, -59.31 05/28/2012 15:55:02 69.03, -59.33 1.01 57
5 05/28/2012 16:45:03 -68.89, 108.14 05/28/2012 16:44:33 -68.87, 108.10 3.17 30
6 05/30/2012 20:38:46 69.01,-130.43 05/30/2012 20:39:18 68.99,-130.45 2.57 32
7 05/30/2012 21:29:45 -68.88, 36.99 05/30/2012 21:28:48 -68.88, 37.05 2.52 57
8 06/02/2012 00:32:44 -70.05, -10.38 06/02/2012 00:33:51 -69.93, -7.90 95.38 67
9 06/02/2012 01:23:27 69.00, 158.42 06/02/2012 01:23:33 68.98, 158.48 2.89 6
10 06/02/2012 02:14:20 -68.52, -33.69 06/02/2012 02:13:08 -68.60, -34.36 28.81 72
11 06/04/2012 05:17:09 -69.19, -80.26 06/04/2012 05:18:20 -69.14, -80.02 10.89 71
12 06/04/2012 06:08:06 68.89, 87.39 06/04/2012 06:07:49 68.91, 87.33 3.23 17
13 06/06/2012 10:01:47 -69.02,-151.19 06/06/2012 10:02:37 -69.01,-151.26 3.16 50
14 06/06/2012 10:52:46 68.86, 16.27 06/06/2012 10:52:04 68.88, 16.23 2.69 42
15 06/08/2012 14:46:28 -69.03, 137.63 06/08/2012 14:46:51 -69.02, 137.70 2.98
